Regional Weather Roundup
Issued by NWS

Home | Current Version | Previous Version | Text Only | Print | Product List | Glossary On
Versions: 1 2 3 4 5 6 7 8 9 10 11 12 13 14 15 16 17 18 19 20 21 22 23 24 25 26 27 28 29 30 31 32 33 34 35 36 37 38 39 40 41 42 43 44 45 46 47 48 49 50
000
ASUS43 KMKX 302259
RWRWI

WISCONSIN REGIONAL WEATHER ROUNDUP
NATIONAL WEATHER SERVICE MILWAUKEE/SULLIVAN WI
600 PM CDT MON MAR 30 2015

NOTE: "FAIR" INDICATES FEW OR NO CLOUDS BELOW 12,000 FEET WITH NO
SIGNIFICANT WEATHER AND/OR OBSTRUCTIONS TO VISIBILITY.

WIZ001-002-006>008-014>016-023>028-310000-
NORTHWEST WISCONSIN

CITY           SKY/WX    TMP DP  RH WIND       PRES   REMARKS
SUPERIOR ARPT  RAIN      41  39  93 W8        29.88R
ASHLAND        CLOUDY    42  27  55 NW14      29.85R
HAYWARD        RAIN      40  38  93 NW3       29.86R FOG
SIREN          RAIN      45  39  79 CALM      29.85R
CUMBERLAND     LGT RAIN  41  37  87 CALM      29.82S
RICE LAKE      CLOUDY    43  39  85 SE9       29.82F
CHETEK         CLOUDY    43  40  90 E5        29.82F
LADYSMITH      CLOUDY    44  38  79 S6        29.84F
EAU CLAIRE     NOT AVBL
MENOMONIE      CLOUDY    49  38  65 E10       29.79F
NEW RICHMOND   CLOUDY    53  36  53 S9        29.79F
OSCEOLA        CLOUDY    52  39  62 E7        29.83R
$$

WIZ003>005-009-010-017-018-310000-
NORTH CENTRAL WISCONSIN

CITY           SKY/WX    TMP DP  RH WIND       PRES   REMARKS
MANITOWISH WTR CLOUDY    47  21  35 CALM      29.80F
ARBOR VITAE    CLOUDY    49  21  32 NW3       29.81S
WOODRUFF       CLOUDY    49  21  32 NW3       29.81S
RHINELANDER    CLOUDY    49  21  33 CALM      29.81F
EAGLE RIVER    PTSUNNY   48  16  27 CALM      29.81F
LAND O LAKES   CLOUDY    46  18  33 N3        29.82F
PHILLIPS       LGT RAIN  41  36  83 CALM      29.82R
TOMAHAWK       CLOUDY    44  30  58 CALM      29.82F
MEDFORD        CLOUDY    41  37  84 SW6       29.84R
MERRILL        CLOUDY    46  33  61 CALM      29.83F
$$

WIZ029-030-035-036-043>047-310000-
CENTRAL WISCONSIN

CITY           SKY/WX    TMP DP  RH WIND       PRES   REMARKS
WAUSAU         LGT RAIN  43  34  70 VRB3      29.81F
MOSINEE        CLOUDY    41  39  93 S6        29.85F
MARSHFIELD     CLOUDY    43  39  86 S5        29.85F
STEVENS POINT  LGT RAIN  40  39  95 S7        29.86F
WAUPACA        LGT RAIN  45  41  84 S7        29.88F
WAUTOMA        NOT AVBL
WISC RAPIDS    CLOUDY    45  40  82 SE5       29.86F
CAMP DOUGLAS   NOT AVBL
$$

WIZ011>013-019>022-031-037>040-048>050-310000-
NORTHEAST WISCONSIN

CITY           SKY/WX    TMP DP  RH WIND       PRES   REMARKS
ANTIGO         CLOUDY    45  29  52 SW10G16   29.83S
SHAWANO        CLOUDY    54  24  31 SW8       29.84F
OCONTO         CLOUDY    42  31  65 SE9       29.84S
STURGEON BAY   PTSUNNY   39  28  65 SE15      29.89F WCI  31
GREEN BAY      CLOUDY    51  33  50 SW14      29.85F
MANITOWOC      NOT AVBL
APPLETON       LGT RAIN  46  36  66 SW12      29.88S
CLINTONVILLE   CLOUDY    46  32  57 SW13      29.85F
OSHKOSH        LGT RAIN  45  41  86 E3        29.87F
$$

WIZ032>034-041-042-053>061-310000-
SOUTHWEST WISCONSIN

CITY           SKY/WX    TMP DP  RH WIND       PRES   REMARKS
LA CROSSE      PTSUNNY   59  31  34 E8        29.79F
SPARTA         PTSUNNY   52  32  47 E8        29.84F
VIROQUA        CLOUDY    55  31  39 SE9       29.82F
BOSCOBEL       CLOUDY    61  31  32 E5        29.81F
PRAIRIE DU CHI CLOUDY    60  31  33 E8        29.79F
PLATTEVILLE    CLOUDY    59  37  44 E7        29.85F
$$

WIZ056-057-062-063-064-067-068-310000-
SOUTH CENTRAL WISCONSIN

CITY           SKY/WX    TMP DP  RH WIND       PRES   REMARKS
REEDSBURG      CLOUDY    51  36  56 E3        29.85F
BARABOO/DELLS  CLOUDY    50  35  54 E6        29.86F
LONE ROCK      NOT AVBL
MINERAL POINT  CLOUDY    54  30  40 E8        29.85F
MADISON        CLOUDY    51  35  54 E9        29.87F
MIDDLETON      CLOUDY    55  35  46 E10       29.88F
WATERTOWN      CLOUDY    49  41  73 E3        29.89F
MONROE         CLOUDY    54  32  43 E7        29.87F
JANESVILLE     CLOUDY    55  34  44 E7        29.89F
$$

WIZ051-052-058>065-066-070>072-310000-
SOUTHEAST WISCONSIN

CITY           SKY/WX    TMP DP  RH WIND       PRES   REMARKS
MILWAUKEE      LGT RAIN  50  37  61 N5        29.92F
WAUKESHA       MOSUNNY   46  39  76 NE6       29.91F
MILWAUKEE/TIMM CLOUDY    46  37  71 NW6       29.93S
RACINE         LGT RAIN  50  39  66 W5        29.94S
BURLINGTON     CLOUDY    50  33  53 CALM      29.93S
KENOSHA        LGT RAIN  50  39  66 N5        29.94S
FOND DU LAC    LGT RAIN  46  41  82 CALM      29.87F
SHEBOYGAN      LGT RAIN  48  36  63 W9        29.90R
WEST BEND      LGT RAIN  46  36  66 W6        29.91S
JUNEAU         CLOUDY    47  41  80 CALM      29.90F
$$

LSZ147-162-310000-
LAKE SUPERIOR

STATION/POSITION TIME  TEMP    WIND        PRES    WAVE
                       AIR SEA DIR/SP/G            HT/PER
                 (UTC) (F)     (DEG/KT/KT) (MB)    (FT/S)
DEVILS ISLAND    2200   41     120/ 12/ 12 1010.9F
PORT WING        2200   46     260/  2/  2 1010.5S
SAXON HARBOR     2200   40      50/  5/  8 1009.8F
$$

LMZ867-665-643>646-310000-
LAKE MICHIGAN

STATION/POSITION TIME  TEMP    WIND        PRES    WAVE
                       AIR SEA DIR/SP/G            HT/PER
                 (UTC) (F)     (DEG/KT/KT) (MB)    (FT/S)
NORTHPORT PIER   2200   38     160/  9/ 13 1011.9F
SISTER BAY       2217   43     150/ 13/ 17   N/A
KEWAUNEE LAKESHO 2200   38     130/  3/  6 1011.1F
SHEBOYGAN LAKESH 2200   54     270/ 13/ 16 1012.5F
PORT WASHINGTON  2240   52     280/  9/ 12 1013.5R
MILWAUKEE LAKESH 2215   53     290/ 11/ 16   N/A
KENOSHA   LAKESH 2200   54     300/  9/ 15 1013.5F
$$

TC  - TEMPERATURE IN CELSIUS
VSB - VISIBILITY IN STATUTE MILES
WCI - WIND CHILL INDEX
HX  - HEAT INDEX



USA.gov is the U.S. government's official web portal to all federal, state and local government web resources and services.